When you browse on this site, cookies collect data to enhance your experience and personalize the content and advertising you see.
Visit our Privacy Policy to learn more. By continuing to use the site, you agree to this use of cookies and data.

Meteo pe oră la Alia

Astăzi, 14 August, Vineri

Timp Temperatura Precipitaţii Vânt Presiune Umiditate
00:00 +25°C° 0 mm 1 m/s 710 mmHg 44%
01:00 +25°C° 0 mm 2 m/s 710 mmHg 44%
02:00 +24°C° 0 mm 2 m/s 710 mmHg 43%
03:00 +24°C° 0 mm 1 m/s 709 mmHg 42%
04:00 +23°C° 0 mm 1 m/s 709 mmHg 42%
05:00 +25°C° 0 mm 1 m/s 709 mmHg 38%
06:00 +26°C° 0 mm 1 m/s 710 mmHg 34%
07:00 +28°C° 0 mm 1 m/s 710 mmHg 30%
08:00 +30°C° 0 mm 1 m/s 710 mmHg 28%
09:00 +33°C° 0 mm 1 m/s 711 mmHg 25%
10:00 +37°C° 0 mm 2 m/s 711 mmHg 22%
11:00 +38°C° 0 mm 2 m/s 711 mmHg 22%
12:00 +38°C° 0 mm 3 m/s 711 mmHg 21%
13:00 +40°C° 0 mm 4 m/s 711 mmHg 21%
14:00 +38°C° 0 mm 4 m/s 710 mmHg 22%
15:00 +37°C° 0 mm 3 m/s 710 mmHg 23%
16:00 +37°C° 0 mm 3 m/s 709 mmHg 24%
17:00 +34°C° 0 mm 3 m/s 709 mmHg 29%
18:00 +31°C° 0 mm 2 m/s 709 mmHg 34%
19:00 +29°C° 0 mm 1 m/s 708 mmHg 39%
20:00 +28°C° 0 mm 1 m/s 708 mmHg 41%
21:00 +27°C° 0 mm 1 m/s 708 mmHg 43%
22:00 +26°C° 0 mm 1 m/s 709 mmHg 45%
23:00 +25°C° 0 mm 1 m/s 708 mmHg 47%

Mâine, 15 August, Sâmbătă

Timp Temperatura Precipitaţii Vânt Presiune Umiditate
00:00 +25°C° 0 mm 1 m/s 708 mmHg 49%
01:00 +25°C° 0 mm 1 m/s 708 mmHg 51%
02:00 +25°C° 0 mm 1 m/s 708 mmHg 50%
03:00 +25°C° 0 mm 1 m/s 708 mmHg 50%
04:00 +25°C° 0 mm 1 m/s 707 mmHg 49%
05:00 +26°C° 0 mm 1 m/s 708 mmHg 46%
06:00 +27°C° 0 mm 1 m/s 708 mmHg 42%
07:00 +29°C° 0 mm 1 m/s 708 mmHg 39%
08:00 +31°C° 0 mm 2 m/s 709 mmHg 33%
09:00 +34°C° 0 mm 3 m/s 709 mmHg 27%
10:00 +36°C° 0 mm 4 m/s 710 mmHg 22%
11:00 +37°C° 0 mm 4 m/s 710 mmHg 21%
12:00 +37°C° 0 mm 4 m/s 710 mmHg 21%
13:00 +38°C° 0 mm 4 m/s 710 mmHg 21%
14:00 +37°C° 0 mm 4 m/s 709 mmHg 22%
15:00 +37°C° 0 mm 4 m/s 709 mmHg 22%
16:00 +37°C° 0 mm 4 m/s 709 mmHg 23%
17:00 +34°C° 0 mm 3 m/s 708 mmHg 30%
18:00 +31°C° 0 mm 3 m/s 708 mmHg 38%
19:00 +28°C° 0 mm 2 m/s 707 mmHg 45%
20:00 +27°C° 0 mm 2 m/s 707 mmHg 48%
21:00 +26°C° 0 mm 2 m/s 708 mmHg 51%
22:00 +25°C° 0 mm 1 m/s 708 mmHg 54%
23:00 +25°C° 0 mm 1 m/s 707 mmHg 49%

Poimâine, 16 August, Duminică

Timp Temperatura Precipitaţii Vânt Presiune Umiditate
00:00 +25°C° 0 mm 1 m/s 707 mmHg 44%
01:00 +25°C° 0 mm 1 m/s 707 mmHg 39%
02:00 +25°C° 0 mm 1 m/s 707 mmHg 38%
03:00 +24°C° 0 mm 1 m/s 707 mmHg 37%
04:00 +24°C° 0 mm 1 m/s 706 mmHg 35%
05:00 +25°C° 0 mm 1 m/s 707 mmHg 33%
06:00 +26°C° 0 mm 1 m/s 707 mmHg 31%
07:00 +28°C° 0 mm 1 m/s 707 mmHg 29%
08:00 +30°C° 0 mm 1 m/s 708 mmHg 26%
09:00 +32°C° 0 mm 2 m/s 709 mmHg 23%
10:00 +36°C° 0 mm 2 m/s 709 mmHg 20%
11:00 +36°C° 0 mm 3 m/s 709 mmHg 20%
12:00 +37°C° 0 mm 3 m/s 709 mmHg 20%
13:00 +38°C° 0 mm 4 m/s 709 mmHg 21%
14:00 +38°C° 0 mm 4 m/s 709 mmHg 21%
15:00 +37°C° 0 mm 4 m/s 709 mmHg 22%
16:00 +37°C° 0 mm 4 m/s 708 mmHg 23%
17:00 +35°C° 0 mm 3 m/s 708 mmHg 27%
18:00 +31°C° 0 mm 2 m/s 708 mmHg 32%
19:00 +29°C° 0 mm 1 m/s 707 mmHg 37%
20:00 +28°C° 0 mm 1 m/s 707 mmHg 40%
21:00 +27°C° 0 mm 1 m/s 708 mmHg 42%
22:00 +26°C° 0 mm 1 m/s 708 mmHg 45%
23:00 +26°C° 0 mm 1 m/s 708 mmHg 45%

17 August, Luni

Timp Temperatura Precipitaţii Vânt Presiune Umiditate
00:00 +26°C° 0 mm 1 m/s 708 mmHg 44%
01:00 +25°C° 0 mm 1 m/s 707 mmHg 43%
02:00 +25°C° 0 mm 1 m/s 707 mmHg 42%
03:00 +25°C° 0 mm 1 m/s 707 mmHg 42%
04:00 +25°C° 0 mm 1 m/s 707 mmHg 42%
05:00 +26°C° 0 mm 1 m/s 707 mmHg 39%
06:00 +28°C° 0 mm 1 m/s 708 mmHg 36%
07:00 +29°C° 0 mm 1 m/s 708 mmHg 33%
08:00 +32°C° 0 mm 1 m/s 708 mmHg 28%
09:00 +35°C° 0 mm 2 m/s 709 mmHg 23%
10:00 +38°C° 0 mm 3 m/s 709 mmHg 18%
11:00 +40°C° 0 mm 4 m/s 709 mmHg 18%
12:00 +40°C° 0 mm 5 m/s 709 mmHg 18%
13:00 +41°C° 0 mm 5 m/s 709 mmHg 18%
14:00 +40°C° 0 mm 5 m/s 709 mmHg 19%
15:00 +39°C° 0 mm 5 m/s 709 mmHg 20%
16:00 +39°C° 0 mm 5 m/s 709 mmHg 21%
17:00 +36°C° 0 mm 3 m/s 708 mmHg 25%
18:00 +32°C° 0 mm 2 m/s 708 mmHg 29%
19:00 +30°C° 0 mm 1 m/s 708 mmHg 32%
20:00 +29°C° 0 mm 1 m/s 708 mmHg 35%
21:00 +28°C° 0 mm 1 m/s 708 mmHg 38%
22:00 +27°C° 0 mm 1 m/s 708 mmHg 40%
23:00 +27°C° 0 mm 1 m/s 708 mmHg 42%

18 August, Marţi

Timp Temperatura Precipitaţii Vânt Presiune Umiditate
00:00 +26°C° 0 mm 1 m/s 708 mmHg 45%
01:00 +23°C° 0 mm 0 m/s 708 mmHg 47%
02:00 +23°C° 0 mm 0 m/s 707 mmHg 46%
03:00 +23°C° 0 mm 0 m/s 707 mmHg 45%
04:00 +25°C° 0 mm 1 m/s 707 mmHg 44%
05:00 +26°C° 0 mm 1 m/s 707 mmHg 40%
06:00 +28°C° 0 mm 1 m/s 707 mmHg 37%
07:00 +29°C° 0 mm 1 m/s 708 mmHg 33%
08:00 +32°C° 0 mm 2 m/s 708 mmHg 28%
09:00 +36°C° 0 mm 2 m/s 709 mmHg 23%
10:00 +38°C° 0 mm 3 m/s 709 mmHg 18%
11:00 +40°C° 0 mm 4 m/s 709 mmHg 18%
12:00 +40°C° 0 mm 5 m/s 709 mmHg 19%
13:00 +41°C° 0 mm 6 m/s 709 mmHg 20%
14:00 +40°C° 0 mm 6 m/s 708 mmHg 22%
15:00 +39°C° 0 mm 5 m/s 708 mmHg 24%
16:00 +37°C° 0 mm 4 m/s 708 mmHg 26%
17:00 +35°C° 0 mm 3 m/s 707 mmHg 33%
18:00 +31°C° 0 mm 2 m/s 707 mmHg 40%
19:00 +28°C° 0 mm 1 m/s 706 mmHg 46%
20:00 +28°C° 0 mm 1 m/s 707 mmHg 48%
21:00 +27°C° 0 mm 1 m/s 707 mmHg 50%
22:00 +26°C° 0 mm 1 m/s 707 mmHg 52%
23:00 +25°C° 0 mm 1 m/s 707 mmHg 50%

19 August, Miercuri

Timp Temperatura Precipitaţii Vânt Presiune Umiditate
00:00 +25°C° 0 mm 1 m/s 707 mmHg 49%
01:00 +25°C° 0 mm 1 m/s 706 mmHg 47%
02:00 +24°C° 0 mm 1 m/s 706 mmHg 52%
03:00 +24°C° 0 mm 2 m/s 706 mmHg 57%
04:00 +23°C° 0 mm 2 m/s 705 mmHg 61%
05:00 +24°C° 0 mm 2 m/s 705 mmHg 57%
06:00 +25°C° 0 mm 1 m/s 706 mmHg 53%
07:00 +26°C° 0 mm 1 m/s 706 mmHg 49%
08:00 +28°C° 0 mm 2 m/s 707 mmHg 43%
09:00 +31°C° 0 mm 2 m/s 707 mmHg 36%
10:00 +34°C° 0 mm 3 m/s 707 mmHg 30%
11:00 +35°C° 0 mm 3 m/s 707 mmHg 28%
12:00 +36°C° 0 mm 4 m/s 707 mmHg 26%
13:00 +37°C° 0 mm 5 m/s 707 mmHg 25%
14:00 +36°C° 0 mm 4 m/s 707 mmHg 25%
15:00 +35°C° 0 mm 4 m/s 707 mmHg 26%
16:00 +35°C° 0 mm 4 m/s 706 mmHg 27%
17:00 +32°C° 0 mm 4 m/s 706 mmHg 36%
18:00 +28°C° 0 mm 3 m/s 705 mmHg 45%
19:00 +25°C° 0 mm 2 m/s 705 mmHg 55%
20:00 +24°C° 0 mm 2 m/s 705 mmHg 61%
21:00 +23°C° 0 mm 2 m/s 705 mmHg 68%
22:00 +21°C° 0 mm 2 m/s 705 mmHg 75%
23:00 +21°C° 0 mm 2 m/s 705 mmHg 72%
Arată mai mult